• In Russia
  • List of Countries
  • For 7 days
  • Water Temperature
  • Satellite Maps
  • Weather Map
  • Weather Widgets
  • user-avatar
    Login

    Hourly Weather Punta Cana

    Today, 17 June, Monday

    Time Temperature Precipitation Wind Pressure Humidity
    00:00 +28°C° 1 mm 5 mps 763 mmHg 90%
    01:00 +27°C° 0 mm 4 mps 763 mmHg 88%
    02:00 +27°C° 0.2 mm 4 mps 763 mmHg 89%
    03:00 +27°C° 0.2 mm 4 mps 763 mmHg 90%
    04:00 +27°C° 0.2 mm 4 mps 763 mmHg 91%
    05:00 +28°C° 0 mm 4 mps 763 mmHg 89%
    06:00 +29°C° 0 mm 4 mps 763 mmHg 86%
    07:00 +30°C° 0 mm 4 mps 764 mmHg 83%
    08:00 +30°C° 0 mm 4 mps 764 mmHg 78%
    09:00 +32°C° 0 mm 5 mps 764 mmHg 74%
    10:00 +33°C° 0 mm 5 mps 764 mmHg 69%
    11:00 +33°C° 0 mm 5 mps 764 mmHg 69%
    12:00 +33°C° 0 mm 5 mps 764 mmHg 69%
    13:00 +33°C° 0 mm 5 mps 764 mmHg 69%
    14:00 +33°C° 0.1 mm 5 mps 763 mmHg 70%
    15:00 +33°C° 0.1 mm 5 mps 763 mmHg 71%
    16:00 +32°C° 0.1 mm 5 mps 763 mmHg 73%
    17:00 +30°C° 0.1 mm 5 mps 763 mmHg 78%
    18:00 +29°C° 0.1 mm 6 mps 763 mmHg 83%
    19:00 +28°C° 0.1 mm 6 mps 764 mmHg 89%
    20:00 +28°C° 0.2 mm 6 mps 764 mmHg 89%
    21:00 +28°C° 0.2 mm 5 mps 764 mmHg 90%
    22:00 +28°C° 0.2 mm 5 mps 765 mmHg 91%
    23:00 +28°C° 0.1 mm 5 mps 764 mmHg 91%

    Tomorrow, 18 June, Tuesday

    Time Temperature Precipitation Wind Pressure Humidity
    00:00 +28°C° 0.1 mm 5 mps 764 mmHg 91%
    01:00 +28°C° 0.1 mm 5 mps 764 mmHg 91%
    02:00 +27°C° 0 mm 4 mps 764 mmHg 91%
    03:00 +27°C° 0 mm 4 mps 764 mmHg 91%
    04:00 +27°C° 0 mm 4 mps 763 mmHg 91%
    05:00 +28°C° 0 mm 4 mps 764 mmHg 87%
    06:00 +28°C° 0 mm 4 mps 764 mmHg 83%
    07:00 +29°C° 0 mm 4 mps 764 mmHg 80%
    08:00 +30°C° 0 mm 4 mps 764 mmHg 74%
    09:00 +32°C° 0 mm 4 mps 764 mmHg 69%
    10:00 +33°C° 0 mm 4 mps 764 mmHg 64%
    11:00 +33°C° 0 mm 4 mps 764 mmHg 63%
    12:00 +33°C° 0 mm 4 mps 764 mmHg 61%
    13:00 +34°C° 0 mm 4 mps 764 mmHg 60%
    14:00 +33°C° 0 mm 5 mps 763 mmHg 62%
    15:00 +33°C° 0 mm 5 mps 763 mmHg 65%
    16:00 +32°C° 0 mm 5 mps 763 mmHg 68%
    17:00 +30°C° 0 mm 5 mps 763 mmHg 73%
    18:00 +30°C° 0 mm 5 mps 763 mmHg 77%
    19:00 +29°C° 0 mm 6 mps 764 mmHg 82%
    20:00 +28°C° 0.1 mm 6 mps 764 mmHg 83%
    21:00 +28°C° 0.1 mm 6 mps 764 mmHg 85%
    22:00 +28°C° 0.1 mm 6 mps 765 mmHg 87%
    23:00 +28°C° 0 mm 6 mps 764 mmHg 87%

    Day after tomorrow, 19 June, Wednesday

    Time Temperature Precipitation Wind Pressure Humidity
    00:00 +27°C° 0 mm 5 mps 764 mmHg 87%
    01:00 +27°C° 0 mm 5 mps 764 mmHg 88%
    02:00 +27°C° 0 mm 5 mps 763 mmHg 88%
    03:00 +27°C° 0 mm 4 mps 763 mmHg 88%
    04:00 +27°C° 0 mm 4 mps 763 mmHg 88%
    05:00 +28°C° 0 mm 4 mps 764 mmHg 83%
    06:00 +29°C° 0 mm 4 mps 764 mmHg 78%
    07:00 +29°C° 0 mm 4 mps 764 mmHg 73%
    08:00 +30°C° 0 mm 4 mps 764 mmHg 69%
    09:00 +32°C° 0 mm 4 mps 764 mmHg 66%
    10:00 +33°C° 0 mm 5 mps 765 mmHg 62%
    11:00 +33°C° 0 mm 4 mps 764 mmHg 62%
    12:00 +33°C° 0 mm 4 mps 764 mmHg 61%
    13:00 +34°C° 0 mm 4 mps 763 mmHg 61%
    14:00 +33°C° 0 mm 4 mps 763 mmHg 63%
    15:00 +33°C° 0 mm 4 mps 763 mmHg 65%
    16:00 +32°C° 0 mm 4 mps 762 mmHg 67%
    17:00 +30°C° 0.1 mm 4 mps 763 mmHg 73%
    18:00 +29°C° 0.1 mm 4 mps 763 mmHg 79%
    19:00 +29°C° 0.1 mm 5 mps 763 mmHg 86%
    20:00 +28°C° 0 mm 5 mps 764 mmHg 87%
    21:00 +28°C° 0 mm 4 mps 764 mmHg 88%
    22:00 +28°C° 0 mm 4 mps 764 mmHg 90%
    23:00 +28°C° 0 mm 5 mps 764 mmHg 89%

    20 June, Thursday

    Time Temperature Precipitation Wind Pressure Humidity
    00:00 +28°C° 0 mm 5 mps 764 mmHg 88%
    01:00 +27°C° 0 mm 5 mps 764 mmHg 87%
    02:00 +27°C° 0 mm 5 mps 764 mmHg 87%
    03:00 +27°C° 0 mm 4 mps 764 mmHg 87%
    04:00 +27°C° 0 mm 4 mps 764 mmHg 87%
    05:00 +28°C° 0 mm 4 mps 764 mmHg 83%
    06:00 +29°C° 0 mm 4 mps 764 mmHg 80%
    07:00 +29°C° 0 mm 4 mps 765 mmHg 76%
    08:00 +30°C° 0 mm 4 mps 765 mmHg 71%
    09:00 +32°C° 0 mm 5 mps 765 mmHg 66%
    10:00 +33°C° 0 mm 5 mps 765 mmHg 61%
    11:00 +34°C° 0 mm 5 mps 765 mmHg 61%
    12:00 +34°C° 0 mm 5 mps 764 mmHg 61%
    13:00 +34°C° 0 mm 5 mps 764 mmHg 60%
    14:00 +33°C° 0 mm 5 mps 764 mmHg 64%
    15:00 +33°C° 0 mm 5 mps 763 mmHg 67%
    16:00 +32°C° 0 mm 5 mps 763 mmHg 70%
    17:00 +30°C° 0.1 mm 5 mps 763 mmHg 76%
    18:00 +29°C° 0.1 mm 5 mps 764 mmHg 82%
    19:00 +28°C° 0.1 mm 5 mps 764 mmHg 88%
    20:00 +28°C° 0 mm 5 mps 764 mmHg 89%
    21:00 +28°C° 0 mm 5 mps 765 mmHg 89%
    22:00 +28°C° 0 mm 5 mps 765 mmHg 89%
    23:00 +28°C° 0 mm 5 mps 765 mmHg 88%

    21 June, Friday

    Time Temperature Precipitation Wind Pressure Humidity
    00:00 +28°C° 0 mm 6 mps 764 mmHg 86%
    01:00 +28°C° 0 mm 6 mps 764 mmHg 85%
    02:00 +28°C° 0 mm 6 mps 764 mmHg 85%
    03:00 +28°C° 0 mm 6 mps 764 mmHg 84%
    04:00 +27°C° 0 mm 5 mps 764 mmHg 84%
    05:00 +28°C° 0 mm 6 mps 765 mmHg 81%
    06:00 +29°C° 0 mm 6 mps 765 mmHg 78%
    07:00 +30°C° 0 mm 6 mps 765 mmHg 74%
    08:00 +30°C° 0 mm 6 mps 766 mmHg 71%
    09:00 +32°C° 0 mm 6 mps 766 mmHg 68%
    10:00 +33°C° 0 mm 6 mps 766 mmHg 64%
    11:00 +33°C° 0 mm 5 mps 766 mmHg 63%
    12:00 +33°C° 0 mm 5 mps 765 mmHg 62%
    13:00 +34°C° 0 mm 5 mps 765 mmHg 61%
    14:00 +33°C° 0 mm 4 mps 765 mmHg 63%
    15:00 +32°C° 0 mm 4 mps 764 mmHg 66%
    16:00 +32°C° 0 mm 4 mps 764 mmHg 68%
    17:00 +30°C° 0 mm 3 mps 764 mmHg 73%
    18:00 +29°C° 0 mm 3 mps 765 mmHg 78%
    19:00 +27°C° 0 mm 3 mps 765 mmHg 84%
    20:00 +28°C° 0 mm 3 mps 765 mmHg 85%
    21:00 +28°C° 0 mm 3 mps 766 mmHg 86%
    22:00 +28°C° 0 mm 3 mps 766 mmHg 87%
    23:00 +28°C° 0 mm 3 mps 766 mmHg 86%

    22 June, Saturday

    Time Temperature Precipitation Wind Pressure Humidity
    00:00 +27°C° 0 mm 4 mps 765 mmHg 86%
    01:00 +27°C° 0 mm 4 mps 765 mmHg 86%
    02:00 +28°C° 0 mm 4 mps 765 mmHg 86%
    03:00 +28°C° 0 mm 4 mps 765 mmHg 85%
    04:00 +28°C° 0 mm 4 mps 765 mmHg 84%
    05:00 +28°C° 0 mm 4 mps 765 mmHg 81%
    06:00 +29°C° 0 mm 4 mps 765 mmHg 78%
    07:00 +29°C° 0 mm 4 mps 766 mmHg 75%
    08:00 +30°C° 0 mm 4 mps 766 mmHg 71%
    09:00 +31°C° 0 mm 3 mps 766 mmHg 66%
    10:00 +33°C° 0 mm 3 mps 766 mmHg 62%
    11:00 +33°C° 0 mm 3 mps 765 mmHg 60%
    12:00 +33°C° 0 mm 3 mps 765 mmHg 59%
    13:00 +34°C° 0 mm 3 mps 764 mmHg 57%
    14:00 +33°C° 0 mm 3 mps 764 mmHg 60%
    15:00 +33°C° 0 mm 3 mps 764 mmHg 63%
    16:00 +31°C° 0 mm 3 mps 764 mmHg 66%
    17:00 +30°C° 0 mm 3 mps 764 mmHg 72%
    18:00 +29°C° 0 mm 4 mps 764 mmHg 78%
    19:00 +27°C° 0 mm 4 mps 765 mmHg 84%
    20:00 +27°C° 0 mm 4 mps 765 mmHg 85%
    21:00 +27°C° 0 mm 5 mps 765 mmHg 86%
    22:00 +27°C° 0 mm 5 mps 765 mmHg 87%
    23:00 +27°C° 0 mm 5 mps 765 mmHg 87%
    Show more